EW7149 Weather Reports


Display with metric or nautical units.
time (UTC)temp
F
wind
direction
speed
MPH
gust
MPH
rain 1hr
in
rain 24hr
in
rain mn
in
humidity
%
barometer
mb
20260905204623 81 337 0.0 2.0 0.00 0.00 0.00 45 1009.7
20260905204104 81 22 0.0 2.0 0.00 0.00 0.00 46 1009.6
20260905203608 81 319 0.0 2.0 0.00 0.00 0.00 47 1009.7
20260905203116 81 345 0.0 0.0 0.00 0.00 0.00 48 1009.7
20260905202619 82 345 0.0 0.0 0.00 0.00 0.00 49 1009.7
20260905202104 82 345 0.0 5.0 0.00 0.00 0.00 50 1009.8
20260905201605 83 0 0.0 5.0 0.00 0.00 0.00 50 1009.8
20260905201110 83 290 0.0 5.0 0.00 0.00 0.00 49 1009.8
20260905200608 83 351 0.0 3.0 0.00 0.00 0.00 48 1009.8
20260905200058 83 306 0.0 2.0 0.00 0.00 0.00 47 1009.9
20260905195554 83 284 0.0 5.0 0.00 0.00 0.00 48 1009.8
20260905195042 83 5 0.0 5.0 0.00 0.00 0.00 48 1009.9
20260905193927 82 263 0.0 5.0 0.00 0.00 0.00 49 1009.9
20260905193420 82 286 0.0 6.0 0.00 0.00 0.00 43 1010.0
20260905192927 82 289 0.0 6.0 0.00 0.00 0.00 48 1010.0
20260905192437 82 44 0.0 4.0 0.00 0.00 0.00 47 1010.1
20260905191938 82 162 0.0 4.0 0.00 0.00 0.00 49 1010.2
20260905191425 82 281 0.0 2.0 0.00 0.00 0.00 48 1010.3
20260905190308 82 298 0.0 3.0 0.00 0.00 0.00 50 1010.3
20260905185801 82 295 0.0 2.0 0.00 0.00 0.00 49 1010.3
20260905185309 82 298 0.0 3.0 0.00 0.00 0.00 48 1010.4
20260905184810 82 293 0.0 3.0 0.00 0.00 0.00 43 1010.6
20260905184252 81 252 0.0 2.0 0.00 0.00 0.00 40 1010.6
20260905183744 81 284 0.0 2.0 0.00 0.00 0.00 41 1010.7
20260905183249 80 243 0.0 2.0 0.00 0.00 0.00 40 1010.7
20260905182057 80 32 0.0 5.0 0.00 0.00 0.00 43 1010.7
20260905181605 80 55 1.0 5.0 0.00 0.00 0.00 43 1010.7
20260905181054 80 315 0.0 3.0 0.00 0.00 0.00 36 1010.8
20260905180554 80 5 1.0 6.0 0.00 0.00 0.00 25 1010.9
20260905175439 79 296 1.0 6.0 0.00 0.00 0.00 40 1010.9
20260905174943 79 296 1.0 5.0 0.00 0.00 0.00 41 1010.9
20260905174440 79 275 1.0 5.0 0.00 0.00 0.00 41 1011.1
20260905173922 79 260 0.0 3.0 0.00 0.00 0.00 34 1011.1
20260905173430 79 192 0.0 3.0 0.00 0.00 0.00 31 1011.2
20260905172930 79 219 0.0 3.0 0.00 0.00 0.00 36 1011.2
20260905172436 79 288 0.0 3.0 0.00 0.00 0.00 36 1011.3
20260905171940 79 45 0.0 3.0 0.00 0.00 0.00 31 1011.3
20260905171447 79 223 0.0 2.0 0.00 0.00 0.00 32 1011.3
20260905170956 78 96 0.0 0.0 0.00 0.00 0.00 40 1011.4
20260905170442 78 96 0.0 3.0 0.00 0.00 0.00 36 1011.5
20260905165927 78 275 0.0 3.0 0.00 0.00 0.00 31 1011.6
20260905165410 78 242 0.0 2.0 0.00 0.00 0.00 14 1011.6
20260905164240 77 267 0.0 2.0 0.00 0.00 0.00 13 1011.5
20260905163721 77 269 0.0 2.0 0.00 0.00 0.00 18 1011.5
20260905163226 77 325 0.0 2.0 0.00 0.00 0.00 7 1011.7
20260905161429 77 256 0.0 3.0 0.00 0.00 0.00 9 1011.8
20260905160912 77 341 0.0 3.0 0.00 0.00 0.00 2 1011.9
20260905155742 77 277 0.0 3.0 0.00 0.00 0.00 12 1012.0
20260905155238 77 277 0.0 2.0 0.00 0.00 0.00 5 1012.0
20260905153455 77 277 0.0 5.0 0.00 0.00 0.00 1 1012.2
20260905153005 77 277 0.0 7.0 0.00 0.00 0.00 1 1012.2
20260905151842 77 281 1.0 7.0 0.00 0.00 0.00 2 1012.3
20260905150739 76 332 1.0 5.0 0.00 0.00 0.00 1 1012.2
20260905150240 76 276 1.0 5.0 0.00 0.00 0.00 1 1012.1
20260905145725 76 248 0.0 3.0 0.00 0.00 0.00 1 1011.9
20260905145234 76 275 0.0 3.0 0.00 0.00 0.00 1 1012.0
20260905144730 76 275 0.0 3.0 0.00 0.00 0.00 1 1012.1
20260905144221 76 274 0.0 3.0 0.00 0.00 0.00 1 1012.2
20260905143717 76 296 0.0 3.0 0.00 0.00 0.00 1 1012.2
20260905142606 76 310 0.0 3.0 0.00 0.00 0.00 1 1011.9
20260905142058 75 311 0.0 3.0 0.00 0.00 0.00 1 1011.7
20260905141555 75 263 0.0 2.0 0.00 0.00 0.00 1 1011.7
20260905141037 75 263 0.0 2.0 0.00 0.00 0.00 1 1011.7
20260905140544 74 263 0.0 2.0 0.00 0.00 0.00 1 1011.6
20260905134746 73 263 0.0 3.0 0.00 0.00 0.00 1 1011.5
20260905134256 72 284 0.0 3.0 0.00 0.00 0.00 1 1011.5
20260905133758 72 301 0.0 3.0 0.00 0.00 0.00 1 1011.5
20260905133246 73 288 0.0 1.0 0.00 0.00 0.00 1 1011.6
20260905132736 73 288 0.0 1.0 0.00 0.00 0.00 1 1011.7
20260905132241 73 288 0.0 5.0 0.00 0.00 0.00 1 1011.7
20260905131721 73 70 0.0 5.0 0.00 0.00 0.00 1 1011.8
20260905131207 72 73 1.0 5.0 0.00 0.00 0.00 1 1011.6
20260905130702 72 83 0.0 5.0 0.00 0.00 0.00 1 1011.4
20260905125556 72 291 0.0 2.0 0.00 0.00 0.00 1 1011.3
20260905125106 72 248 0.0 0.0 0.00 0.00 0.00 1 1011.3
20260905124600 71 248 0.0 1.0 0.00 0.00 0.00 1 1011.3
20260905124100 71 247 0.0 0.0 0.00 0.00 0.00 1 1011.3
20260905123558 71 246 0.0 0.0 0.00 0.00 0.00 1 1011.3
20260905123057 71 246 0.0 0.0 0.00 0.00 0.00 1 1011.3
20260905122604 71 246 0.0 0.0 0.00 0.00 0.00 1 1011.1
20260905122115 71 246 0.0 0.0 0.00 0.00 0.00 1 1011.2
20260905121600 72 246 0.0 0.0 0.00 0.00 0.00 1 1011.3
20260905121055 72 246 0.0 0.0 0.00 0.00 0.00 1 1011.3
20260905115909 72 242 0.0 0.0 0.00 0.00 0.00 1 1011.2
20260905115354 71 242 0.0 0.0 0.00 0.00 0.00 1 1011.2
20260905114858 71 242 0.0 0.0 0.00 0.00 0.00 1 1011.2
20260905114400 71 242 0.0 0.0 0.00 0.00 0.00 1 1011.2
20260905113249 71 242 0.0 0.0 0.00 0.00 0.00 1 1011.1
20260905112737 71 242 0.0 0.0 0.00 0.00 0.00 1 1011.2
20260905112247 71 242 0.0 0.0 0.00 0.00 0.00 1 1011.1
20260905111124 71 242 0.0 0.0 0.00 0.00 0.00 1 1011.0
20260905110617 71 242 0.0 0.0 0.00 0.00 0.00 1 1010.8
20260905110107 70 242 0.0 0.0 0.00 0.00 0.00 1 1010.8
20260905105613 70 242 0.0 0.0 0.00 0.00 0.00 1 1010.7
20260905105103 70 242 0.0 0.0 0.00 0.00 0.00 1 1010.6
20260905104604 70 242 0.0 0.0 0.00 0.00 0.00 1 1010.6
20260905103432 71 242 0.0 0.0 0.00 0.00 0.00 1 1010.4
20260905102936 71 242 0.0 0.0 0.00 0.00 0.00 1 1010.4
20260905102424 71 242 0.0 0.0 0.00 0.00 0.00 1 1010.4
20260905101915 71 242 0.0 0.0 0.00 0.00 0.00 1 1010.2
20260905100739 71 242 0.0 0.0 0.00 0.00 0.00 1 1010.2
20260905100244 71 242 0.0 0.0 0.00 0.00 0.00 1 1010.1
20260905095731 71 242 0.0 0.0 0.00 0.00 0.00 1 1010.1
20260905095235 71 242 0.0 0.0 0.00 0.00 0.00 1 1010.1
20260905094719 71 242 0.0 0.0 0.00 0.00 0.00 1 1010.1
20260905094207 71 242 0.0 0.0 0.00 0.00 0.00 1 1010.1
20260905093711 71 242 0.0 0.0 0.00 0.01 0.00 1 1010.1
20260905093153 72 242 0.0 0.0 0.00 0.03 0.00 1 1010.1
20260905092642 72 242 0.0 0.0 0.00 0.06 0.00 1 1010.1
20260905091522 72 242 0.0 0.0 0.00 0.17 0.00 1 1010.0
20260905091020 72 242 0.0 0.0 0.00 0.17 0.00 1 1010.1
20260905090507 72 242 0.0 0.0 0.00 0.17 0.00 1 1010.0
20260905090006 72 242 0.0 0.0 0.00 0.17 0.00 1 1010.0
20260905084840 72 242 0.0 0.0 0.00 0.17 0.00 1 1009.9
20260905084322 72 242 0.0 0.0 0.00 0.17 0.00 1 1009.9
20260905083818 73 242 0.0 0.0 0.00 0.17 0.00 1 1009.9
20260905083325 73 242 0.0 0.0 0.00 0.17 0.00 1 1009.9
20260905082201 73 242 0.0 0.0 0.00 0.17 0.00 1 1009.9
20260905081649 73 242 0.0 0.0 0.00 0.17 0.00 1 1009.9
20260905081153 73 242 0.0 0.0 0.00 0.17 0.00 1 1010.0
20260905080652 73 242 0.0 0.0 0.00 0.17 0.00 1 1010.1
20260905080133 73 241 0.0 0.0 0.00 0.17 0.00 1 1010.2
20260905075624 73 241 0.0 0.0 0.00 0.17 0.00 1 1010.2
20260905075124 73 242 0.0 0.0 0.00 0.17 0.00 1 1010.1
20260905074609 73 241 0.0 1.0 0.00 0.17 0.00 1 1010.1
20260905074113 74 240 0.0 0.0 0.00 0.17 0.00 1 1010.1
20260905073609 74 240 0.0 2.0 0.00 0.17 0.00 1 1010.0
20260905072454 74 306 0.0 2.0 0.00 0.17 0.00 1 1010.0
20260905072000 74 307 0.0 0.0 0.00 0.17 0.00 1 1010.0
20260905071450 74 309 0.0 4.0 0.00 0.17 0.00 1 1010.1
20260905070943 74 309 0.0 5.0 0.00 0.17 0.00 1 1010.2
20260905065815 74 284 0.0 5.0 0.00 0.17 0.00 1 1010.5
20260905065301 74 254 0.0 3.0 0.00 0.17 0.00 1 1010.5
20260905064742 74 292 0.0 2.0 0.00 0.17 0.00 1 1010.6
20260905064236 74 265 1.0 6.0 0.00 0.17 0.00 1 1010.7
20260905063737 74 285 1.0 6.0 0.00 0.17 0.00 1 1010.7
20260905063243 74 243 1.0 5.0 0.00 0.17 0.00 1 1010.8
20260905062749 74 283 0.0 5.0 0.00 0.17 0.00 1 1011.0
20260905062251 74 246 1.0 5.0 0.00 0.17 0.00 1 1011.0
20260905061800 74 246 1.0 5.0 0.00 0.17 0.00 1 1011.0
20260905061256 74 298 0.0 3.0 0.00 0.17 0.00 1 1011.0
20260905060755 74 260 0.0 3.0 0.00 0.17 0.00 1 1011.1
20260905060255 75 259 0.0 0.0 0.00 0.17 0.00 1 1011.1
20260905055800 75 259 0.0 3.0 0.00 0.17 0.00 1 1011.1
20260905055247 75 256 1.0 3.0 0.00 0.17 0.00 1 1011.1
20260905054757 75 259 0.0 3.0 0.00 0.17 0.00 1 1011.2
20260905054242 75 250 0.0 3.0 0.00 0.17 0.00 1 1011.1
20260905053738 75 250 1.0 3.0 0.00 0.17 0.00 1 1011.2
20260905053243 75 238 1.0 7.0 0.00 0.17 0.00 1 1011.4
20260905052051 75 309 1.0 7.0 0.00 0.17 0.00 1 1011.4
20260905051559 75 241 1.0 7.0 0.00 0.17 0.00 1 1011.4
20260905051054 75 286 1.0 6.0 0.00 0.17 0.00 1 1011.4
20260905050540 75 251 0.0 3.0 0.00 0.17 0.00 1 1011.5
20260905050038 75 254 0.0 3.0 0.00 0.17 0.00 1 1011.4
20260905045525 75 295 0.0 3.0 0.00 0.17 0.00 1 1011.4
20260905044354 76 232 0.0 4.0 0.00 0.17 0.00 1 1011.7
20260905043854 76 284 1.0 7.0 0.00 0.17 0.00 1 1011.6
20260905043347 76 257 0.0 7.0 0.00 0.17 0.00 1 1011.5
20260905042844 76 258 0.0 7.0 0.00 0.17 0.00 1 1011.5
20260905042341 76 266 0.0 7.0 0.00 0.17 0.00 1 1011.5
20260905041836 76 278 0.0 2.0 0.00 0.17 0.00 1 1011.6
20260905041319 76 240 0.0 3.0 0.00 0.19 0.00 1 1011.7
20260905040145 76 254 0.0 2.0 0.00 0.19 0.00 1 1011.7
20260905035644 76 251 0.0 0.0 0.00 0.20 0.19 1 1011.8
20260905035150 76 251 0.0 3.0 0.00 0.21 0.19 1 1011.8
20260905034656 76 238 0.0 0.0 0.00 0.21 0.19 1 1011.7
20260905034153 76 238 0.0 1.0 0.00 0.22 0.19 1 1011.8
20260905033657 76 234 0.0 0.0 0.00 0.22 0.19 1 1011.8
20260905033144 76 264 0.0 0.0 0.00 0.23 0.19 1 1011.8
20260905031352 76 264 0.0 0.0 0.00 0.23 0.19 1 1011.9
20260905030856 76 265 0.0 1.0 0.00 0.23 0.19 1 1011.8
20260905025716 76 265 0.0 0.0 0.00 0.25 0.19 1 1011.7
20260905025218 76 265 0.0 0.0 0.00 0.33 0.19 1 1011.7
20260905024704 76 265 0.0 0.0 0.00 0.38 0.19 1 1011.6
20260905024148 76 265 0.0 0.0 0.00 0.38 0.19 1 1011.5
20260905023021 76 265 0.0 0.0 0.00 0.38 0.19 1 1011.5
20260905022530 76 265 0.0 0.0 0.00 0.38 0.19 1 1011.5
20260905021415 77 265 0.0 0.0 0.00 0.38 0.19 1 1011.5
20260905015614 77 265 0.0 1.0 0.00 0.38 0.19 1 1011.4
20260905015119 77 265 0.0 0.0 0.00 0.38 0.19 1 1011.4
20260905014607 77 265 0.0 0.0 0.00 0.38 0.19 1 1011.3
20260905013453 77 265 0.0 0.0 0.00 0.38 0.19 1 1011.1
20260905012945 77 265 0.0 0.0 0.00 0.38 0.19 1 1011.1
20260905012439 77 265 0.0 0.0 0.00 0.38 0.19 1 1011.0
20260905011940 77 267 0.0 0.0 0.00 0.38 0.19 1 1011.0
20260905010821 77 269 0.0 0.0 0.00 0.38 0.19 1 1011.0
20260905010325 77 269 0.0 0.0 0.00 0.38 0.19 1 1011.0
20260905005818 77 269 0.0 2.0 0.00 0.38 0.19 1 1011.0
20260905005307 77 269 0.0 0.0 0.00 0.38 0.19 1 1011.1
20260905004748 77 252 0.0 0.0 0.00 0.38 0.19 1 1011.0
20260905004239 77 252 0.0 1.0 0.00 0.38 0.19 1 1011.0
20260905003731 77 252 0.0 1.0 0.00 0.38 0.19 1 1011.0
20260905003220 77 252 0.0 0.0 0.00 0.38 0.19 1 1011.0
20260905002715 78 252 0.0 0.0 0.00 0.38 0.19 1 1010.9
20260905002200 78 252 0.0 1.0 0.00 0.38 0.19 1 1010.8
20260905001703 78 252 0.0 0.0 0.00 0.38 0.19 1 1010.7
20260905001205 78 252 0.0 0.0 0.00 0.38 0.19 1 1010.7
20260905000649 78 252 0.0 0.0 0.00 0.38 0.19 1 1010.7
20260905000150 78 252 0.0 0.0 0.00 0.38 0.19 1 1010.9
20260904235650 79 252 0.0 0.0 0.00 0.38 0.19 1 1010.8
20260904234527 79 253 0.0 0.0 0.00 0.38 0.19 1 1010.9
20260904234035 80 253 0.0 0.0 0.00 0.38 0.19 1 1010.8
20260904233540 80 253 0.0 0.0 0.00 0.38 0.19 1 1010.8
20260904233023 80 253 0.0 0.0 0.00 0.38 0.19 1 1011.0
20260904232521 80 253 0.0 0.0 0.00 0.38 0.19 1 1010.9
20260904232017 80 253 0.0 0.0 0.00 0.38 0.19 1 1011.0
20260904231526 81 253 0.0 0.0 0.00 0.38 0.19 1 1011.2
20260904231034 81 253 0.0 0.0 0.00 0.38 0.19 1 1011.1
20260904230531 81 253 0.0 0.0 0.00 0.38 0.19 1 1011.0
20260904230012 81 253 0.0 2.0 0.00 0.38 0.19 1 1011.0
20260904224244 82 252 0.0 0.0 0.00 0.38 0.19 1 1011.1
20260904223729 82 252 0.0 0.0 0.00 0.38 0.19 1 1011.2
20260904223221 82 252 0.0 0.0 0.00 0.38 0.19 1 1011.1
20260904222707 83 252 0.0 0.0 0.00 0.38 0.19 1 1011.2
20260904222203 83 252 0.0 0.0 0.00 0.38 0.19 1 1011.2
20260904221652 83 252 0.0 0.0 0.00 0.38 0.19 1 1011.2
20260904221159 83 252 0.0 0.0 0.00 0.38 0.19 1 1011.1
20260904220654 83 252 0.0 0.0 0.00 0.38 0.19 1 1011.2
20260904214247 83 252 0.0 0.0 0.00 0.38 0.19 1 1011.4
20260904212445 83 252 0.0 2.0 0.00 0.38 0.19 1 1011.6
20260904211945 83 252 0.0 1.0 0.00 0.38 0.19 1 1011.7
20260904211454 83 251 0.0 0.0 0.00 0.38 0.19 1 1011.8
20260904210328 84 252 0.0 1.0 0.00 0.38 0.19 1 1011.7
20260904205821 84 251 0.0 1.0 0.00 0.38 0.19 1 1011.8